Location: Ago
(8.4667°N, 4.4167°E)
Time: 09:16:15
(UTC+00:00)

STARLINK-1081 - Pass Details

Date: 06 June 2020
Orbit: 549 x 550 km, 53.0° (Epoch: 06 July)

Event Time Altitude Azimuth Distance (km) Brightness Sun altitude
Rises 19:27:54 0° 329° (NNW) 2,712 8.2 -20.6°
Reaches altitude 10° 19:30:08 10° 331° (NNW) 1,820 7.1 -21.1°
Maximum altitude 19:34:15 69° 55° (NE) 589 3.5 -22.0°
Enters shadow 19:34:20 69° 65° (ENE) 590 3.5 -22.0°
